Weather History for Mandan, ND

Change the Weather History Date:

Friday, November 23, 2012

  Actual Average (KBIS) Record (KBIS)
Temperature  
Mean Temperature 16 °F 25 °F  
Max Temperature 23 °F 35 °F 62 °F (2011)
Min Temperature 8 °F 15 °F -21 °F (1985)
Degree Days  
Heating Degree Days 50 40  
Month to date heating degree days 780  
Since 1 July heating degree days 1692  
Cooling Degree Days 0 0  
Month to date cooling degree days 0  
Year to date cooling degree days 520  
Moisture  
Dew Point 12 °F    
Average Humidity 83    
Maximum Humidity 100    
Minimum Humidity 63    
Precipitation  
Precipitation 0.03 in 0.02 in 0.51 in (1996)
Month to date precipitation 0.59  
Year to date precipitation 17.24  
Snow  
Snow 0.00 in 0.30 in 8.90 in (1996)
Month to date snowfall 6.7  
Since 1 July snowfall 9.1  
Since 1 September snowfall 9.1  
Snow Depth -    
Sea Level Pressure  
Sea Level Pressure 30.41 in    
Wind  
Wind Speed 11 mph (NW)    
Max Wind Speed 21 mph    
Max Gust Speed 30 mph    
Visibility 10 miles    
Events Snow    
T = Trace of Precipitation, MM = Missing Value Source: NWS Daily Summary

Daily Weather History Graph

Daily Weather History Graph

Search for Another Location

Airport:

Trip Planner

Search our weather history database for the weather conditions in past years. The results will help you decide how hot, cold, wet, or windy it might be!

Date:

Astronomy

Nov. 23, 2012 Rise Set
Actual Time 7:58 AM CST 5:01 PM CST
Civil Twilight 7:24 AM CST 5:35 PM CST
Nautical Twilight 6:46 AM CST 6:12 PM CST
Astronomical Twilight 6:10 AM CST 6:49 PM CST
Moon 2:30 PM CST (11/23) 3:04 AM CST (11/23)
Length of Visible Light 10h 11m
Length of Day
9h 03m
Waxing Gibbous, 80% of the Moon is Illuminated
Nov 23
Waxing Gibbous
Nov 28
Full
Dec 6
Last Quarter
Dec 13
New
Dec 19
First Quarter

Hourly Weather History & Observations

Time (CST) Temp. Windchill Dew Point Humidity Pressure Visibility Wind Dir Wind Speed Gust Speed Precip Events Conditions
12:15 AM 15.8 °F 0.9 °F 10.4 °F 79% 30.42 in 10.0 mi NW 15.0 mph 27.6 mph N/A   Clear
12:35 AM 15.8 °F -1.5 °F 10.4 °F 79% 30.43 in 10.0 mi NNW 20.7 mph 26.5 mph N/A   Partly Cloudy
12:55 AM 15.8 °F -0.2 °F 10.4 °F 79% 30.43 in 10.0 mi NW 17.3 mph 28.8 mph N/A   Clear
1:15 AM 14.0 °F -2.5 °F 10.4 °F 86% 30.44 in 10.0 mi NW 17.3 mph 25.3 mph N/A   Clear
1:35 AM 14.0 °F -3.0 °F 10.4 °F 86% 30.44 in 10.0 mi NW 18.4 mph 29.9 mph N/A   Clear
1:55 AM 14.0 °F -0.2 °F 10.4 °F 86% 30.45 in 10.0 mi NW 12.7 mph - N/A   Scattered Clouds
2:15 AM 14.0 °F -0.8 °F 10.4 °F 86% 30.45 in 10.0 mi NW 13.8 mph 21.9 mph N/A   Partly Cloudy
2:35 AM 12.2 °F -2.5 °F 10.4 °F 92% 30.46 in 10.0 mi NW 12.7 mph 19.6 mph N/A   Partly Cloudy
2:55 AM 12.2 °F -4.3 °F 10.4 °F 92% 30.47 in 10.0 mi WNW 16.1 mph - N/A   Clear
3:15 AM 12.2 °F -3.7 °F 10.4 °F 92% 30.47 in 10.0 mi WNW 15.0 mph - N/A   Partly Cloudy
3:35 AM 12.2 °F -4.3 °F 10.4 °F 92% 30.47 in 10.0 mi WNW 16.1 mph 20.7 mph N/A Snow Light Snow
3:55 AM 14.0 °F -3.0 °F 10.4 °F 86% 30.47 in 10.0 mi NW 18.4 mph 24.2 mph N/A Snow Light Snow
4:15 AM 14.0 °F -0.2 °F 12.2 °F 93% 30.47 in 10.0 mi NW 12.7 mph - N/A Snow Light Snow
4:35 AM 14.0 °F -2.0 °F 12.2 °F 93% 30.47 in 10.0 mi NW 16.1 mph 21.9 mph N/A Snow Light Snow
4:55 AM 14.0 °F -0.8 °F 10.4 °F 86% 30.48 in 10.0 mi NW 13.8 mph 18.4 mph N/A   Partly Cloudy
5:15 AM 14.0 °F -1.4 °F 10.4 °F 86% 30.48 in 10.0 mi NW 15.0 mph - N/A   Partly Cloudy
5:35 AM 14.0 °F -1.4 °F 10.4 °F 86% 30.48 in 10.0 mi NW 15.0 mph - N/A   Mostly Cloudy
5:55 AM 14.0 °F 0.5 °F 10.4 °F 86% 30.49 in 10.0 mi NW 11.5 mph 16.1 mph N/A Snow Light Snow
6:15 AM 12.2 °F 0.7 °F 10.4 °F 92% 30.49 in 10.0 mi NW 8.1 mph - N/A   Mostly Cloudy
6:35 AM 10.4 °F -3.3 °F 10.4 °F 100% 30.48 in 10.0 mi NNW 10.4 mph - N/A   Mostly Cloudy
6:55 AM 10.4 °F 0.8 °F 8.6 °F 92% 30.48 in 10.0 mi NNW 5.8 mph - N/A   Mostly Cloudy
7:15 AM 10.4 °F -0.4 °F 10.4 °F 100% 30.48 in 10.0 mi NNW 6.9 mph - N/A   Mostly Cloudy
7:35 AM 10.4 °F 0.8 °F 10.4 °F 100% 30.49 in 10.0 mi NW 5.8 mph - N/A   Overcast
7:55 AM 8.6 °F -1.3 °F 8.6 °F 100% 30.49 in 10.0 mi WNW 5.8 mph - N/A   Mostly Cloudy
8:15 AM 10.4 °F -0.4 °F 10.4 °F 100% 30.49 in 10.0 mi NW 6.9 mph - N/A Snow Light Snow
8:35 AM 14.0 °F 2.0 °F 12.2 °F 93% 30.49 in 9.0 mi NW 9.2 mph - N/A Snow Light Snow
8:55 AM 14.0 °F 0.5 °F 10.4 °F 86% 30.50 in 8.0 mi NW 11.5 mph - N/A Snow Light Snow
9:15 AM 14.0 °F -1.4 °F 12.2 °F 93% 30.49 in 7.0 mi WNW 15.0 mph - N/A Snow Light Snow
9:35 AM 14.0 °F 0.5 °F 10.4 °F 86% 30.50 in 9.0 mi NW 11.5 mph - 0.02 in Snow Light Snow
9:55 AM 14.0 °F 1.2 °F 10.4 °F 86% 30.50 in 8.0 mi WNW 10.4 mph - 0.02 in Snow Light Snow
10:15 AM 14.0 °F 0.5 °F 10.4 °F 86% 30.50 in 8.0 mi NW 11.5 mph - N/A Snow Light Snow
10:35 AM 14.0 °F 0.5 °F 10.4 °F 86% 30.50 in 9.0 mi NW 11.5 mph - 0.01 in Snow Light Snow
10:55 AM 15.8 °F 5.1 °F 10.4 °F 79% 30.50 in 10.0 mi NW 8.1 mph - 0.01 in Snow Light Snow
11:15 AM 15.8 °F 5.1 °F 10.4 °F 79% 30.49 in 10.0 mi NW 8.1 mph - N/A   Scattered Clouds
11:35 AM 15.8 °F 4.2 °F 12.2 °F 86% 30.49 in 10.0 mi NW 9.2 mph - N/A   Scattered Clouds
11:55 AM 15.8 °F 5.1 °F 12.2 °F 86% 30.48 in 10.0 mi NW 8.1 mph - N/A   Scattered Clouds
12:15 PM 17.6 °F 7.3 °F 12.2 °F 79% 30.46 in 10.0 mi WNW 8.1 mph - N/A   Scattered Clouds
12:35 PM 17.6 °F 8.2 °F 12.2 °F 79% 30.45 in 10.0 mi WNW 6.9 mph - N/A   Scattered Clouds
12:55 PM 19.4 °F 11.5 °F 12.2 °F 74% 30.45 in 10.0 mi West 5.8 mph - N/A   Partly Cloudy
1:15 PM 19.4 °F 12.8 °F 12.2 °F 74% 30.44 in 10.0 mi North 4.6 mph - N/A   Clear
1:35 PM 19.4 °F 12.8 °F 12.2 °F 74% 30.43 in 10.0 mi NW 4.6 mph - N/A   Clear
1:55 PM 21.2 °F 13.6 °F 12.2 °F 68% 30.42 in 10.0 mi West 5.8 mph - N/A   Clear
2:15 PM 21.2 °F 16.4 °F 12.2 °F 68% 30.42 in 10.0 mi WNW 3.5 mph - N/A   Clear
2:35 PM 23.0 °F 15.8 °F 12.2 °F 63% 30.42 in 10.0 mi West 5.8 mph - N/A   Clear
2:55 PM 23.0 °F - 14.0 °F 68% 30.41 in 10.0 mi Calm Calm - N/A   Clear
3:15 PM 23.0 °F 18.4 °F 12.2 °F 63% 30.40 in 10.0 mi NW 3.5 mph - N/A   Clear
3:35 PM 23.0 °F - 12.2 °F 63% 30.38 in 10.0 mi Calm Calm - N/A   Clear
3:55 PM 23.0 °F - 12.2 °F 63% 30.38 in 10.0 mi Calm Calm - N/A   Clear
4:15 PM 21.2 °F - 12.2 °F 68% 30.38 in 10.0 mi Calm Calm - N/A   Clear
4:35 PM 19.4 °F 12.8 °F 14.0 °F 80% 30.38 in 10.0 mi East 4.6 mph - N/A   Clear
4:55 PM 19.4 °F 12.8 °F 12.2 °F 74% 30.38 in 10.0 mi East 4.6 mph - N/A   Clear
5:15 PM 19.4 °F 11.5 °F 14.0 °F 80% 30.37 in 10.0 mi East 5.8 mph - N/A   Clear
5:35 PM 19.4 °F 10.4 °F 14.0 °F 80% 30.36 in 10.0 mi East 6.9 mph - N/A   Clear
5:55 PM 19.4 °F 10.4 °F 14.0 °F 80% 30.34 in 10.0 mi East 6.9 mph - N/A   Scattered Clouds
6:15 PM 19.4 °F 11.5 °F 14.0 °F 80% 30.34 in 10.0 mi ESE 5.8 mph - N/A   Mostly Cloudy
6:35 PM 17.6 °F 9.3 °F 14.0 °F 86% 30.34 in 10.0 mi ESE 5.8 mph - N/A   Scattered Clouds
6:55 PM 15.8 °F 7.2 °F 14.0 °F 93% 30.33 in 10.0 mi SE 5.8 mph - N/A   Clear
7:15 PM 17.6 °F 7.3 °F 14.0 °F 86% 30.31 in 10.0 mi ESE 8.1 mph - N/A   Scattered Clouds
7:35 PM 19.4 °F 9.5 °F 15.8 °F 86% 30.30 in 10.0 mi ESE 8.1 mph - N/A   Overcast
7:55 PM 19.4 °F 10.4 °F 14.0 °F 80% 30.30 in 10.0 mi SE 6.9 mph - N/A   Overcast
8:15 PM 19.4 °F 11.5 °F 15.8 °F 86% 30.30 in 10.0 mi SE 5.8 mph - N/A   Overcast
8:35 PM 19.4 °F 10.4 °F 15.8 °F 86% 30.29 in 10.0 mi SE 6.9 mph - N/A   Overcast
8:55 PM 19.4 °F 10.4 °F 15.8 °F 86% 30.28 in 10.0 mi SE 6.9 mph - N/A   Overcast
9:15 PM 19.4 °F 9.5 °F 15.8 °F 86% 30.28 in 10.0 mi SE 8.1 mph - N/A   Overcast
9:35 PM 19.4 °F 8.6 °F 15.8 °F 86% 30.27 in 10.0 mi SE 9.2 mph - N/A   Overcast
9:55 PM 19.4 °F 9.5 °F 15.8 °F 86% 30.27 in 10.0 mi SSE 8.1 mph - N/A   Overcast
10:15 PM 21.2 °F 12.6 °F 15.8 °F 80% 30.26 in 10.0 mi SE 6.9 mph - N/A   Overcast
10:35 PM 21.2 °F 10.9 °F 15.8 °F 80% 30.24 in 10.0 mi SE 9.2 mph - N/A   Overcast
10:55 PM 21.2 °F 10.9 °F 15.8 °F 80% 30.22 in 10.0 mi SE 9.2 mph - N/A   Overcast
11:15 PM 21.2 °F 11.7 °F 15.8 °F 80% 30.21 in 10.0 mi SE 8.1 mph - N/A   Overcast
11:35 PM 21.2 °F 11.7 °F 15.8 °F 80% 30.20 in 10.0 mi SE 8.1 mph - N/A   Overcast
11:55 PM 21.2 °F 11.7 °F 15.8 °F 80% 30.19 in 10.0 mi SE 8.1 mph - N/A   Overcast